Year,Month,Day,Hour,Minute,Value (Times are PST for temperature in C)
2015,04,10,00,00,6.80
2015,04,10,00,01,6.80
2015,04,10,00,02,6.80
2015,04,10,00,03,6.80
2015,04,10,00,04,6.80
2015,04,10,00,05,6.80
2015,04,10,00,06,6.80
2015,04,10,00,07,6.80
2015,04,10,00,08,6.80
2015,04,10,00,09,6.80
2015,04,10,00,10,6.80
2015,04,10,00,11,6.80
2015,04,10,00,12,6.70
2015,04,10,00,13,6.70
2015,04,10,00,14,6.70
2015,04,10,00,15,6.70
2015,04,10,00,16,6.70
2015,04,10,00,17,6.60
2015,04,10,00,18,6.60
2015,04,10,00,19,6.60
2015,04,10,00,20,6.60
2015,04,10,00,21,6.60
2015,04,10,00,22,6.60
2015,04,10,00,23,6.60
2015,04,10,00,24,6.60
2015,04,10,00,25,6.60
2015,04,10,00,26,6.60
2015,04,10,00,27,6.60
2015,04,10,00,28,6.60
2015,04,10,00,29,6.60
2015,04,10,00,30,6.50
2015,04,10,00,31,6.40
2015,04,10,00,32,6.40
2015,04,10,00,33,6.40
2015,04,10,00,34,6.40
2015,04,10,00,35,6.40
2015,04,10,00,36,6.40
2015,04,10,00,37,6.40
2015,04,10,00,38,6.40
2015,04,10,00,39,6.30
2015,04,10,00,40,6.30
2015,04,10,00,41,6.30
2015,04,10,00,42,6.30
2015,04,10,00,43,6.30
2015,04,10,00,44,6.30
2015,04,10,00,45,6.30
2015,04,10,00,46,6.30
2015,04,10,00,47,6.30
2015,04,10,00,48,6.30
2015,04,10,00,49,6.30
2015,04,10,00,50,6.30
2015,04,10,00,51,6.30
2015,04,10,00,52,6.30
2015,04,10,00,53,6.40
2015,04,10,00,54,6.40
2015,04,10,00,55,6.40
2015,04,10,00,56,6.40
2015,04,10,00,57,6.40
2015,04,10,00,58,6.40
2015,04,10,00,59,6.40
2015,04,10,01,00,6.40
2015,04,10,01,01,6.50
2015,04,10,01,02,6.60
2015,04,10,01,03,6.60
2015,04,10,01,04,6.60
2015,04,10,01,05,6.60
2015,04,10,01,06,6.60
2015,04,10,01,07,6.50
2015,04,10,01,08,6.50
2015,04,10,01,09,6.40
2015,04,10,01,10,6.40
2015,04,10,01,11,6.40
2015,04,10,01,12,6.40
2015,04,10,01,13,6.40
2015,04,10,01,14,6.40
2015,04,10,01,15,6.40
2015,04,10,01,16,6.40
2015,04,10,01,17,6.40
2015,04,10,01,18,6.40
2015,04,10,01,19,6.40
2015,04,10,01,20,6.40
2015,04,10,01,21,6.40
2015,04,10,01,22,6.40
2015,04,10,01,23,6.40
2015,04,10,01,24,6.40
2015,04,10,01,25,6.40
2015,04,10,01,26,6.40
2015,04,10,01,27,6.40
2015,04,10,01,28,6.40
2015,04,10,01,29,6.40
2015,04,10,01,30,6.40
2015,04,10,01,31,6.30
2015,04,10,01,32,6.30
2015,04,10,01,33,6.30
2015,04,10,01,34,6.30
2015,04,10,01,35,6.30
2015,04,10,01,36,6.30
2015,04,10,01,37,6.30
2015,04,10,01,38,6.30
2015,04,10,01,39,6.30
2015,04,10,01,40,6.30
2015,04,10,01,41,6.20
2015,04,10,01,42,6.20
2015,04,10,01,43,6.20
2015,04,10,01,44,6.20
2015,04,10,01,45,6.20
2015,04,10,01,46,6.20
2015,04,10,01,47,6.20
2015,04,10,01,48,6.20
2015,04,10,01,49,6.10
2015,04,10,01,50,6.10
2015,04,10,01,51,6.00
2015,04,10,01,52,6.00
2015,04,10,01,53,5.90
2015,04,10,01,54,5.90
2015,04,10,01,55,5.90
2015,04,10,01,56,5.80
2015,04,10,01,57,5.80
2015,04,10,01,58,5.80
2015,04,10,01,59,5.70
2015,04,10,02,00,5.70
2015,04,10,02,01,5.70
2015,04,10,02,02,5.70
2015,04,10,02,03,5.70
2015,04,10,02,04,5.70
2015,04,10,02,05,5.60
2015,04,10,02,06,5.60
2015,04,10,02,07,5.60
2015,04,10,02,08,5.60
2015,04,10,02,09,5.50
2015,04,10,02,10,5.50
2015,04,10,02,11,5.50
2015,04,10,02,12,5.50
2015,04,10,02,13,5.40
2015,04,10,02,14,5.40
2015,04,10,02,15,5.40
2015,04,10,02,16,5.30
2015,04,10,02,17,5.30
2015,04,10,02,18,5.30
2015,04,10,02,19,5.30
2015,04,10,02,20,5.30
2015,04,10,02,21,5.30
2015,04,10,02,22,5.20
2015,04,10,02,23,5.20
2015,04,10,02,24,5.20
2015,04,10,02,25,5.20
2015,04,10,02,26,5.10
2015,04,10,02,27,5.10
2015,04,10,02,28,5.10
2015,04,10,02,29,5.10
2015,04,10,02,30,5.10
2015,04,10,02,31,5.10
2015,04,10,02,32,5.10
2015,04,10,02,33,5.10
2015,04,10,02,34,5.10
2015,04,10,02,35,5.10
2015,04,10,02,36,5.10
2015,04,10,02,37,5.00
2015,04,10,02,38,4.90
2015,04,10,02,39,4.90
2015,04,10,02,40,4.90
2015,04,10,02,41,4.90
2015,04,10,02,42,4.90
2015,04,10,02,43,4.90
2015,04,10,02,44,4.90
2015,04,10,02,45,4.80
2015,04,10,02,46,4.80
2015,04,10,02,47,4.80
2015,04,10,02,48,4.80
2015,04,10,02,49,4.80
2015,04,10,02,50,4.80
2015,04,10,02,51,4.80
2015,04,10,02,52,4.80
2015,04,10,02,53,4.70
2015,04,10,02,54,4.70
2015,04,10,02,55,4.70
2015,04,10,02,56,4.70
2015,04,10,02,57,4.70
2015,04,10,02,58,4.60
2015,04,10,02,59,4.60
2015,04,10,03,00,4.60
2015,04,10,03,01,4.60
2015,04,10,03,02,4.60
2015,04,10,03,03,4.60
2015,04,10,03,04,4.60
2015,04,10,03,05,4.50
2015,04,10,03,06,4.50
2015,04,10,03,07,4.50
2015,04,10,03,08,4.50
2015,04,10,03,09,4.50
2015,04,10,03,10,4.50
2015,04,10,03,11,4.50
2015,04,10,03,12,4.50
2015,04,10,03,13,4.40
2015,04,10,03,14,4.40
2015,04,10,03,15,4.40
2015,04,10,03,16,4.40
2015,04,10,03,17,4.30
2015,04,10,03,18,4.30
2015,04,10,03,19,4.30
2015,04,10,03,20,4.30
2015,04,10,03,21,4.30
2015,04,10,03,22,4.30
2015,04,10,03,23,4.30
2015,04,10,03,24,4.30
2015,04,10,03,25,4.20
2015,04,10,03,26,4.20
2015,04,10,03,27,4.20
2015,04,10,03,28,4.20
2015,04,10,03,29,4.20
2015,04,10,03,30,4.20
2015,04,10,03,31,4.20
2015,04,10,03,32,4.20
2015,04,10,03,33,4.20
2015,04,10,03,34,4.20
2015,04,10,03,35,4.20
2015,04,10,03,36,4.20
2015,04,10,03,37,4.20
2015,04,10,03,38,4.20
2015,04,10,03,39,4.10
2015,04,10,03,40,4.10
2015,04,10,03,41,4.10
2015,04,10,03,42,4.10
2015,04,10,03,43,4.10
2015,04,10,03,44,4.10
2015,04,10,03,45,4.00
2015,04,10,03,46,4.00
2015,04,10,03,47,4.00
2015,04,10,03,48,4.00
2015,04,10,03,49,4.00
2015,04,10,03,50,4.00
2015,04,10,03,51,4.00
2015,04,10,03,52,3.90
2015,04,10,03,53,3.90
2015,04,10,03,54,3.90
2015,04,10,03,55,3.90
2015,04,10,03,56,3.80
2015,04,10,03,57,3.80
2015,04,10,03,58,3.80
2015,04,10,03,59,3.80
2015,04,10,04,00,3.80
2015,04,10,04,01,3.80
2015,04,10,04,02,3.80
2015,04,10,04,03,3.70
2015,04,10,04,04,3.70
2015,04,10,04,05,3.70
2015,04,10,04,06,3.70
2015,04,10,04,07,3.60
2015,04,10,04,08,3.60
2015,04,10,04,09,3.60
2015,04,10,04,10,3.60
2015,04,10,04,11,3.60
2015,04,10,04,12,3.60
2015,04,10,04,13,3.60
2015,04,10,04,14,3.60
2015,04,10,04,15,3.60
2015,04,10,04,16,3.60
2015,04,10,04,17,3.60
2015,04,10,04,18,3.60
2015,04,10,04,19,3.60
2015,04,10,04,20,3.60
2015,04,10,04,21,3.60
2015,04,10,04,22,3.60
2015,04,10,04,23,3.70
2015,04,10,04,24,3.70
2015,04,10,04,25,3.70
2015,04,10,04,26,3.70
2015,04,10,04,27,3.70
2015,04,10,04,28,3.70
2015,04,10,04,29,3.80
2015,04,10,04,30,3.80
2015,04,10,04,31,3.80
2015,04,10,04,32,3.80
2015,04,10,04,33,3.80
2015,04,10,04,34,3.80
2015,04,10,04,35,3.80
2015,04,10,04,36,3.80
2015,04,10,04,37,3.80
2015,04,10,04,38,3.80
2015,04,10,04,39,3.80
2015,04,10,04,40,3.80
2015,04,10,04,41,3.80
2015,04,10,04,42,3.80
2015,04,10,04,43,3.70
2015,04,10,04,44,3.70
2015,04,10,04,45,3.70
2015,04,10,04,46,3.70
2015,04,10,04,47,3.70
2015,04,10,04,48,3.70
2015,04,10,04,49,3.70
2015,04,10,04,50,3.60
2015,04,10,04,51,3.60
2015,04,10,04,52,3.60
2015,04,10,04,53,3.50
2015,04,10,04,54,3.50
2015,04,10,04,55,3.50
2015,04,10,04,56,3.40
2015,04,10,04,57,3.40
2015,04,10,04,58,3.30
2015,04,10,04,59,3.30
2015,04,10,05,00,3.30
2015,04,10,05,01,3.30
2015,04,10,05,02,3.30
2015,04,10,05,03,3.30
2015,04,10,05,04,3.30
2015,04,10,05,05,3.30
2015,04,10,05,06,3.20
2015,04,10,05,07,3.20
2015,04,10,05,08,3.20
2015,04,10,05,09,3.20
2015,04,10,05,10,3.20
2015,04,10,05,11,3.20
2015,04,10,05,12,3.20
2015,04,10,05,13,3.20
2015,04,10,05,14,3.20
2015,04,10,05,15,3.20
2015,04,10,05,16,3.20
2015,04,10,05,17,3.20
2015,04,10,05,18,3.10
2015,04,10,05,19,3.10
2015,04,10,05,20,3.10
2015,04,10,05,21,3.10
2015,04,10,05,22,3.10
2015,04,10,05,23,3.10
2015,04,10,05,24,3.10
2015,04,10,05,25,3.10
2015,04,10,05,26,3.10
2015,04,10,05,27,3.10
2015,04,10,05,28,3.10
2015,04,10,05,29,3.10
2015,04,10,05,30,3.10
2015,04,10,05,31,3.10
2015,04,10,05,32,3.10
2015,04,10,05,33,3.10
2015,04,10,05,34,3.10
2015,04,10,05,35,3.10
2015,04,10,05,36,3.10
2015,04,10,05,37,3.10
2015,04,10,05,38,3.10
2015,04,10,05,39,3.10
2015,04,10,05,40,3.10
2015,04,10,05,41,3.10
2015,04,10,05,42,3.10
2015,04,10,05,43,3.10
2015,04,10,05,44,3.10
2015,04,10,05,45,3.10
2015,04,10,05,46,3.10
2015,04,10,05,47,3.10
2015,04,10,05,48,3.10
2015,04,10,05,49,3.10
2015,04,10,05,50,3.10
2015,04,10,05,51,3.10
2015,04,10,05,52,3.10
2015,04,10,05,53,3.10
2015,04,10,05,54,3.10
2015,04,10,05,55,3.10
2015,04,10,05,56,3.10
2015,04,10,05,57,3.00
2015,04,10,05,58,2.90
2015,04,10,05,59,2.90
2015,04,10,06,00,2.90
2015,04,10,06,01,2.90
2015,04,10,06,02,2.90
2015,04,10,06,03,2.90
2015,04,10,06,04,2.90
2015,04,10,06,05,2.90
2015,04,10,06,06,2.90
2015,04,10,06,07,2.90
2015,04,10,06,08,2.90
2015,04,10,06,09,2.90
2015,04,10,06,10,2.90
2015,04,10,06,11,2.80
2015,04,10,06,12,2.80
2015,04,10,06,13,2.80
2015,04,10,06,14,2.80
2015,04,10,06,15,2.80
2015,04,10,06,16,2.80
2015,04,10,06,17,2.80
2015,04,10,06,18,2.80
2015,04,10,06,19,2.80
2015,04,10,06,20,2.80
2015,04,10,06,21,2.80
2015,04,10,06,22,2.80
2015,04,10,06,23,2.80
2015,04,10,06,24,2.80
2015,04,10,06,25,2.80
2015,04,10,06,26,2.80
2015,04,10,06,27,2.80
2015,04,10,06,28,2.80
2015,04,10,06,29,2.80
2015,04,10,06,30,2.90
2015,04,10,06,31,2.90
2015,04,10,06,32,2.90
2015,04,10,06,33,2.90
2015,04,10,06,34,2.90
2015,04,10,06,35,2.90
2015,04,10,06,36,2.90
2015,04,10,06,37,2.90
2015,04,10,06,38,2.90
2015,04,10,06,39,2.90
2015,04,10,06,40,2.90
2015,04,10,06,41,2.90
2015,04,10,06,42,2.90
2015,04,10,06,43,2.90
2015,04,10,06,44,2.90
2015,04,10,06,45,2.90
2015,04,10,06,46,2.90
2015,04,10,06,47,2.90
2015,04,10,06,48,2.90
2015,04,10,06,49,2.90
2015,04,10,06,50,2.90
2015,04,10,06,51,2.90
2015,04,10,06,52,2.90
2015,04,10,06,53,2.90
2015,04,10,06,54,3.10
2015,04,10,06,55,3.10
2015,04,10,06,56,3.10
2015,04,10,06,57,3.10
2015,04,10,06,58,3.10
2015,04,10,06,59,3.10
2015,04,10,07,00,3.10
2015,04,10,07,01,3.10
2015,04,10,07,02,3.10
2015,04,10,07,03,3.10
2015,04,10,07,04,3.10
2015,04,10,07,05,3.10
2015,04,10,07,06,3.10
2015,04,10,07,07,3.10
2015,04,10,07,08,3.20
2015,04,10,07,09,3.20
2015,04,10,07,10,3.20
2015,04,10,07,11,3.20
2015,04,10,07,12,3.20
2015,04,10,07,13,3.20
2015,04,10,07,14,3.20
2015,04,10,07,15,3.30
2015,04,10,07,16,3.30
2015,04,10,07,17,3.30
2015,04,10,07,18,3.30
2015,04,10,07,19,3.30
2015,04,10,07,20,3.30
2015,04,10,07,21,3.30
2015,04,10,07,22,3.30
2015,04,10,07,23,3.40
2015,04,10,07,24,3.40
2015,04,10,07,25,3.40
2015,04,10,07,26,3.50
2015,04,10,07,27,3.50
2015,04,10,07,28,3.50
2015,04,10,07,29,3.50
2015,04,10,07,30,3.60
2015,04,10,07,31,3.60
2015,04,10,07,32,3.70
2015,04,10,07,33,3.70
2015,04,10,07,34,3.80
2015,04,10,07,35,3.80
2015,04,10,07,36,3.80
2015,04,10,07,37,3.90
2015,04,10,07,38,3.90
2015,04,10,07,39,4.00
2015,04,10,07,40,4.00
2015,04,10,07,41,4.00
2015,04,10,07,42,4.00
2015,04,10,07,43,4.00
2015,04,10,07,44,4.10
2015,04,10,07,45,4.10
2015,04,10,07,46,4.10
2015,04,10,07,47,4.10
2015,04,10,07,48,4.20
2015,04,10,07,49,4.20
2015,04,10,07,50,4.20
2015,04,10,07,51,4.20
2015,04,10,07,52,4.20
2015,04,10,07,53,4.20
2015,04,10,07,54,4.20
2015,04,10,07,55,4.20
2015,04,10,07,56,4.20
2015,04,10,07,57,4.20
2015,04,10,07,58,4.20
2015,04,10,07,59,4.30
2015,04,10,08,00,4.30
2015,04,10,08,01,4.30
2015,04,10,08,02,4.30
2015,04,10,08,03,4.30
2015,04,10,08,04,4.40
2015,04,10,08,05,4.40
2015,04,10,08,06,4.40
2015,04,10,08,07,4.50
2015,04,10,08,08,4.50
2015,04,10,08,09,4.50
2015,04,10,08,10,4.50
2015,04,10,08,11,4.60
2015,04,10,08,12,4.60
2015,04,10,08,13,4.60
2015,04,10,08,14,4.60
2015,04,10,08,15,4.60
2015,04,10,08,16,4.70
2015,04,10,08,17,4.70
2015,04,10,08,18,4.80
2015,04,10,08,19,4.80
2015,04,10,08,20,4.80
2015,04,10,08,21,4.90
2015,04,10,08,22,4.90
2015,04,10,08,23,4.90
2015,04,10,08,24,4.90
2015,04,10,08,25,5.00
2015,04,10,08,26,5.10
2015,04,10,08,27,5.10
2015,04,10,08,28,5.10
2015,04,10,08,29,5.10
2015,04,10,08,30,5.20
2015,04,10,08,31,5.20
2015,04,10,08,32,5.30
2015,04,10,08,33,5.30
2015,04,10,08,34,5.30
2015,04,10,08,35,5.40
2015,04,10,08,36,5.50
2015,04,10,08,37,5.50
2015,04,10,08,38,5.60
2015,04,10,08,39,5.60
2015,04,10,08,40,5.70
2015,04,10,08,41,5.70
2015,04,10,08,42,5.70
2015,04,10,08,43,5.80
2015,04,10,08,44,5.90
2015,04,10,08,45,6.00
2015,04,10,08,46,6.00
2015,04,10,08,47,6.10
2015,04,10,08,48,6.20
2015,04,10,08,49,6.30
2015,04,10,08,50,6.30
2015,04,10,08,51,6.40
2015,04,10,08,52,6.40
2015,04,10,08,53,6.50
2015,04,10,08,54,6.60
2015,04,10,08,55,6.60
2015,04,10,08,56,6.60
2015,04,10,08,57,6.70
2015,04,10,08,58,6.70
2015,04,10,08,59,6.70
2015,04,10,09,00,6.70
2015,04,10,09,01,6.70
2015,04,10,09,02,6.80
2015,04,10,09,03,6.80
2015,04,10,09,04,6.80
2015,04,10,09,05,6.80
2015,04,10,09,06,6.80
2015,04,10,09,07,6.90
2015,04,10,09,08,6.90
2015,04,10,09,09,7.00
2015,04,10,09,10,7.00
2015,04,10,09,11,7.00
2015,04,10,09,12,7.10
2015,04,10,09,13,7.10
2015,04,10,09,14,7.20
2015,04,10,09,15,7.20
2015,04,10,09,16,7.30
2015,04,10,09,17,7.30
2015,04,10,09,18,7.30
2015,04,10,09,19,7.40
2015,04,10,09,20,7.40
2015,04,10,09,21,7.50
2015,04,10,09,22,7.50
2015,04,10,09,23,7.60
2015,04,10,09,24,7.60
2015,04,10,09,25,7.60
2015,04,10,09,26,7.70
2015,04,10,09,27,7.70
2015,04,10,09,28,7.80
2015,04,10,09,29,7.80
2015,04,10,09,30,7.80
2015,04,10,09,31,7.80
2015,04,10,09,32,7.90
2015,04,10,09,33,7.90
2015,04,10,09,34,7.90
2015,04,10,09,35,7.90
2015,04,10,09,36,8.00
2015,04,10,09,37,8.00
2015,04,10,09,38,8.10
2015,04,10,09,39,8.10
2015,04,10,09,40,8.20
2015,04,10,09,41,8.20
2015,04,10,09,42,8.20
2015,04,10,09,43,8.30
2015,04,10,09,44,8.30
2015,04,10,09,45,8.40
2015,04,10,09,46,8.40
2015,04,10,09,47,8.40
2015,04,10,09,48,8.50
2015,04,10,09,49,8.50
2015,04,10,09,50,8.50
2015,04,10,09,51,8.60
2015,04,10,09,52,8.60
2015,04,10,09,53,8.60
2015,04,10,09,54,8.60
2015,04,10,09,55,8.70
2015,04,10,09,56,8.70
2015,04,10,09,57,8.70
2015,04,10,09,58,8.70
2015,04,10,09,59,8.70
2015,04,10,10,00,8.80
2015,04,10,10,01,8.80
2015,04,10,10,02,8.80
2015,04,10,10,03,8.80
2015,04,10,10,04,8.90
2015,04,10,10,05,8.90
2015,04,10,10,06,8.90
2015,04,10,10,07,8.90
2015,04,10,10,08,9.00
2015,04,10,10,09,9.00
2015,04,10,10,10,9.10
2015,04,10,10,11,9.10
2015,04,10,10,12,9.10
2015,04,10,10,13,9.20
2015,04,10,10,14,9.20
2015,04,10,10,15,9.20
2015,04,10,10,16,9.20
2015,04,10,10,17,9.20
2015,04,10,10,18,9.20
2015,04,10,10,19,9.20
2015,04,10,10,20,9.30
2015,04,10,10,21,9.30
2015,04,10,10,22,9.40
2015,04,10,10,23,9.40
2015,04,10,10,24,9.40
2015,04,10,10,25,9.50
2015,04,10,10,26,9.50
2015,04,10,10,27,9.40
2015,04,10,10,28,9.40
2015,04,10,10,29,9.30
2015,04,10,10,30,9.30
2015,04,10,10,31,9.40
2015,04,10,10,32,9.40
2015,04,10,10,33,9.50
2015,04,10,10,34,9.50
2015,04,10,10,35,9.50
2015,04,10,10,36,9.60
2015,04,10,10,37,9.70
2015,04,10,10,38,9.70
2015,04,10,10,39,9.70
2015,04,10,10,40,9.70
2015,04,10,10,41,9.70
2015,04,10,10,42,9.70
2015,04,10,10,43,9.70
2015,04,10,10,44,9.70
2015,04,10,10,45,9.70
2015,04,10,10,46,9.70
2015,04,10,10,47,9.70
2015,04,10,10,48,9.70
2015,04,10,10,49,9.70
2015,04,10,10,50,9.70
2015,04,10,10,51,9.70
2015,04,10,10,52,9.70
2015,04,10,10,53,9.70
2015,04,10,10,54,9.70
2015,04,10,10,55,9.70
2015,04,10,10,56,9.70
2015,04,10,10,57,9.60
2015,04,10,10,58,9.60
2015,04,10,10,59,9.60
2015,04,10,11,00,9.60
2015,04,10,11,01,9.60
2015,04,10,11,02,9.60
2015,04,10,11,03,9.70
2015,04,10,11,04,9.70
2015,04,10,11,05,9.70
2015,04,10,11,06,9.80
2015,04,10,11,07,9.80
2015,04,10,11,08,9.90
2015,04,10,11,09,9.90
2015,04,10,11,10,9.90
2015,04,10,11,11,9.90
2015,04,10,11,12,9.90
2015,04,10,11,13,9.90
2015,04,10,11,14,9.90
2015,04,10,11,15,10.00
2015,04,10,11,16,10.10
2015,04,10,11,17,10.10
2015,04,10,11,18,10.10
2015,04,10,11,19,10.10
2015,04,10,11,20,10.10
2015,04,10,11,21,10.10
2015,04,10,11,22,10.10
2015,04,10,11,23,10.10
2015,04,10,11,24,10.10
2015,04,10,11,25,10.10
2015,04,10,11,26,10.20
2015,04,10,11,27,10.20
2015,04,10,11,28,10.20
2015,04,10,11,29,10.20
2015,04,10,11,30,10.20
2015,04,10,11,31,10.20
2015,04,10,11,32,10.20
2015,04,10,11,33,10.20
2015,04,10,11,34,10.20
2015,04,10,11,35,10.20
2015,04,10,11,36,10.20
2015,04,10,11,37,10.30
2015,04,10,11,38,10.30
2015,04,10,11,39,10.30
2015,04,10,11,40,10.30
2015,04,10,11,41,10.30
2015,04,10,11,42,10.30
2015,04,10,11,43,10.40
2015,04,10,11,44,10.40
2015,04,10,11,45,10.40
2015,04,10,11,46,10.40
2015,04,10,11,47,10.30
2015,04,10,11,48,10.30
2015,04,10,11,49,10.30
2015,04,10,11,50,10.30
2015,04,10,11,51,10.30
2015,04,10,11,52,10.30
2015,04,10,11,53,10.30
2015,04,10,11,54,10.30
2015,04,10,11,55,10.30
2015,04,10,11,56,10.30
2015,04,10,11,57,10.30
2015,04,10,11,58,10.30
2015,04,10,11,59,10.30
2015,04,10,12,00,10.30
2015,04,10,12,01,10.30
2015,04,10,12,02,10.30
2015,04,10,12,03,10.30
2015,04,10,12,04,10.40
2015,04,10,12,05,10.40
2015,04,10,12,06,10.40
2015,04,10,12,07,10.40
2015,04,10,12,08,10.40
2015,04,10,12,09,10.40
2015,04,10,12,10,10.40
2015,04,10,12,11,10.40
2015,04,10,12,12,10.40
2015,04,10,12,13,10.40
2015,04,10,12,14,10.40
2015,04,10,12,15,10.40
2015,04,10,12,16,10.40
2015,04,10,12,17,10.40
2015,04,10,12,18,10.40
2015,04,10,12,19,10.50
2015,04,10,12,20,10.60
2015,04,10,12,21,10.60
2015,04,10,12,22,10.60
2015,04,10,12,23,10.60
2015,04,10,12,24,10.60
2015,04,10,12,25,10.70
2015,04,10,12,26,10.70
2015,04,10,12,27,10.80
2015,04,10,12,28,10.80
2015,04,10,12,29,10.90
2015,04,10,12,30,10.90
2015,04,10,12,31,10.80
2015,04,10,12,32,10.80
2015,04,10,12,33,10.80
2015,04,10,12,34,10.80
2015,04,10,12,35,10.70
2015,04,10,12,36,10.70
2015,04,10,12,37,10.70
2015,04,10,12,38,10.80
2015,04,10,12,39,10.80
2015,04,10,12,40,10.80
2015,04,10,12,41,10.80
2015,04,10,12,42,10.90
2015,04,10,12,43,10.90
2015,04,10,12,44,10.90
2015,04,10,12,45,10.90
2015,04,10,12,46,10.90
2015,04,10,12,47,10.90
2015,04,10,12,48,10.90
2015,04,10,12,49,10.90
2015,04,10,12,50,11.00
2015,04,10,12,51,11.10
2015,04,10,12,52,11.10
2015,04,10,12,53,11.10
2015,04,10,12,54,11.10
2015,04,10,12,55,11.10
2015,04,10,12,56,11.10
2015,04,10,12,57,11.20
2015,04,10,12,58,11.20
2015,04,10,12,59,11.20
2015,04,10,13,00,11.10
2015,04,10,13,01,11.10
2015,04,10,13,02,11.10
2015,04,10,13,03,11.10
2015,04,10,13,04,11.20
2015,04,10,13,05,11.20
2015,04,10,13,06,11.20
2015,04,10,13,07,11.20
2015,04,10,13,08,11.20
2015,04,10,13,09,11.20
2015,04,10,13,10,11.30
2015,04,10,13,11,11.20
2015,04,10,13,12,11.20
2015,04,10,13,13,11.20
2015,04,10,13,14,11.20
2015,04,10,13,15,11.20
2015,04,10,13,16,11.20
2015,04,10,13,17,11.10
2015,04,10,13,18,11.10
2015,04,10,13,19,10.90
2015,04,10,13,20,10.90
2015,04,10,13,21,10.90
2015,04,10,13,22,10.80
2015,04,10,13,23,10.80
2015,04,10,13,24,10.80
2015,04,10,13,25,10.80
2015,04,10,13,26,10.80
2015,04,10,13,27,10.80
2015,04,10,13,28,10.80
2015,04,10,13,29,10.80
2015,04,10,13,30,10.80
2015,04,10,13,31,10.80
2015,04,10,13,32,10.80
2015,04,10,13,33,10.80
2015,04,10,13,34,10.80
2015,04,10,13,35,10.80
2015,04,10,13,36,10.70
2015,04,10,13,37,10.70
2015,04,10,13,38,10.60
2015,04,10,13,39,10.60
2015,04,10,13,40,10.70
2015,04,10,13,41,10.60
2015,04,10,13,42,10.60
2015,04,10,13,43,10.60
2015,04,10,13,44,10.60
2015,04,10,13,45,10.60
2015,04,10,13,46,10.60
2015,04,10,13,47,10.60
2015,04,10,13,48,10.60
2015,04,10,13,49,10.60
2015,04,10,13,50,10.60
2015,04,10,13,51,10.60
2015,04,10,13,52,10.50
2015,04,10,13,53,10.40
2015,04,10,13,54,10.40
2015,04,10,13,55,10.40
2015,04,10,13,56,10.40
2015,04,10,13,57,10.40
2015,04,10,13,58,10.40
2015,04,10,13,59,10.40
2015,04,10,14,00,10.40
2015,04,10,14,01,10.40
2015,04,10,14,02,10.40
2015,04,10,14,03,10.40
2015,04,10,14,04,10.40
2015,04,10,14,05,10.40
2015,04,10,14,06,10.40
2015,04,10,14,07,10.40
2015,04,10,14,08,10.40
2015,04,10,14,09,10.40
2015,04,10,14,10,10.40
2015,04,10,14,11,10.40
2015,04,10,14,12,10.40
2015,04,10,14,13,10.30
2015,04,10,14,14,10.30
2015,04,10,14,15,10.30
2015,04,10,14,16,10.30
2015,04,10,14,17,10.30
2015,04,10,14,18,10.30
2015,04,10,14,19,10.30
2015,04,10,14,20,10.30
2015,04,10,14,21,10.30
2015,04,10,14,22,10.40
2015,04,10,14,23,10.40
2015,04,10,14,24,10.40
2015,04,10,14,25,10.40
2015,04,10,14,26,10.40
2015,04,10,14,27,10.40
2015,04,10,14,28,10.40
2015,04,10,14,29,10.40
2015,04,10,14,30,10.40
2015,04,10,14,31,10.40
2015,04,10,14,32,10.40
2015,04,10,14,33,10.40
2015,04,10,14,34,10.40
2015,04,10,14,35,10.50
2015,04,10,14,36,10.60
2015,04,10,14,37,10.60
2015,04,10,14,38,10.60
2015,04,10,14,39,10.60
2015,04,10,14,40,10.60
2015,04,10,14,41,10.60
2015,04,10,14,42,10.40
2015,04,10,14,43,10.40
2015,04,10,14,44,10.40
2015,04,10,14,45,10.40
2015,04,10,14,46,10.40
2015,04,10,14,47,10.40
2015,04,10,14,48,10.40
2015,04,10,14,49,10.40
2015,04,10,14,50,10.40
2015,04,10,14,51,10.40
2015,04,10,14,52,10.40
2015,04,10,14,53,10.40
2015,04,10,14,54,10.50
2015,04,10,14,55,10.60
2015,04,10,14,56,10.60
2015,04,10,14,57,10.60
2015,04,10,14,58,10.70
2015,04,10,14,59,10.70
2015,04,10,15,00,10.80
2015,04,10,15,01,10.90
2015,04,10,15,02,10.90
2015,04,10,15,03,10.90
2015,04,10,15,04,10.90
2015,04,10,15,05,10.90
2015,04,10,15,06,10.90
2015,04,10,15,07,10.90
2015,04,10,15,08,10.90
2015,04,10,15,09,10.90
2015,04,10,15,10,10.90
2015,04,10,15,11,10.90
2015,04,10,15,12,10.90
2015,04,10,15,13,10.90
2015,04,10,15,14,10.90
2015,04,10,15,15,10.90
2015,04,10,15,16,10.80
2015,04,10,15,17,10.90
2015,04,10,15,18,10.90
2015,04,10,15,19,10.90
2015,04,10,15,20,10.90
2015,04,10,15,21,10.90
2015,04,10,15,22,10.90
2015,04,10,15,23,11.00
2015,04,10,15,24,11.10
2015,04,10,15,25,11.10
2015,04,10,15,26,11.10
2015,04,10,15,27,11.10
2015,04,10,15,28,11.00
2015,04,10,15,29,10.90
2015,04,10,15,30,10.90
2015,04,10,15,31,10.90
2015,04,10,15,32,10.90
2015,04,10,15,33,10.90
2015,04,10,15,34,10.90
2015,04,10,15,35,10.90
2015,04,10,15,36,11.00
2015,04,10,15,37,11.10
2015,04,10,15,38,11.10
2015,04,10,15,39,11.10
2015,04,10,15,40,11.10
2015,04,10,15,41,11.20
2015,04,10,15,42,11.20
2015,04,10,15,43,11.20
2015,04,10,15,44,11.20
2015,04,10,15,45,11.20
2015,04,10,15,46,11.20
2015,04,10,15,47,11.20
2015,04,10,15,48,11.30
2015,04,10,15,49,11.30
2015,04,10,15,50,11.40
2015,04,10,15,51,11.40
2015,04,10,15,52,11.40
2015,04,10,15,53,11.40
2015,04,10,15,54,11.40
2015,04,10,15,55,11.40
2015,04,10,15,56,11.40
2015,04,10,15,57,11.40
2015,04,10,15,58,11.40
2015,04,10,15,59,11.40
2015,04,10,16,00,11.40
2015,04,10,16,01,11.50
2015,04,10,16,02,11.60
2015,04,10,16,03,11.60
2015,04,10,16,04,11.60
2015,04,10,16,05,11.60
2015,04,10,16,06,11.60
2015,04,10,16,07,11.60
2015,04,10,16,08,11.60
2015,04,10,16,09,11.60
2015,04,10,16,10,11.60
2015,04,10,16,11,11.50
2015,04,10,16,12,11.30
2015,04,10,16,13,11.20
2015,04,10,16,14,11.10
2015,04,10,16,15,11.10
2015,04,10,16,16,11.00
2015,04,10,16,17,10.90
2015,04,10,16,18,10.90
2015,04,10,16,19,10.80
2015,04,10,16,20,10.70
2015,04,10,16,21,10.60
2015,04,10,16,22,10.60
2015,04,10,16,23,10.50
2015,04,10,16,24,10.40
2015,04,10,16,25,10.40
2015,04,10,16,26,10.40
2015,04,10,16,27,10.30
2015,04,10,16,28,10.20
2015,04,10,16,29,10.10
2015,04,10,16,30,10.10
2015,04,10,16,31,10.00
2015,04,10,16,32,9.90
2015,04,10,16,33,9.80
2015,04,10,16,34,9.70
2015,04,10,16,35,9.70
2015,04,10,16,36,9.60
2015,04,10,16,37,9.50
2015,04,10,16,38,9.40
2015,04,10,16,39,9.40
2015,04,10,16,40,9.30
2015,04,10,16,41,9.20
2015,04,10,16,42,9.20
2015,04,10,16,43,9.20
2015,04,10,16,44,9.10
2015,04,10,16,45,9.00
2015,04,10,16,46,9.00
2015,04,10,16,47,8.90
2015,04,10,16,48,8.90
2015,04,10,16,49,8.80
2015,04,10,16,50,8.80
2015,04,10,16,51,8.70
2015,04,10,16,52,8.70
2015,04,10,16,53,8.70
2015,04,10,16,54,8.70
2015,04,10,16,55,8.60
2015,04,10,16,56,8.60
2015,04,10,16,57,8.50
2015,04,10,16,58,8.50
2015,04,10,16,59,8.40
2015,04,10,17,00,8.30
2015,04,10,17,01,8.30
2015,04,10,17,02,8.30
2015,04,10,17,03,8.20
2015,04,10,17,04,8.20
2015,04,10,17,05,8.20
2015,04,10,17,06,8.20
2015,04,10,17,07,8.20
2015,04,10,17,08,8.10
2015,04,10,17,09,8.10
2015,04,10,17,10,8.10
2015,04,10,17,11,8.00
2015,04,10,17,12,8.00
2015,04,10,17,13,8.00
2015,04,10,17,14,7.90
2015,04,10,17,15,7.90
2015,04,10,17,16,7.90
2015,04,10,17,17,7.80
2015,04,10,17,18,7.80
2015,04,10,17,19,7.80
2015,04,10,17,20,7.80
2015,04,10,17,21,7.80
2015,04,10,17,22,7.80
2015,04,10,17,23,7.70
2015,04,10,17,24,7.70
2015,04,10,17,25,7.70
2015,04,10,17,26,7.70
2015,04,10,17,27,7.70
2015,04,10,17,28,7.70
2015,04,10,17,29,7.70
2015,04,10,17,30,7.70
2015,04,10,17,31,7.70
2015,04,10,17,32,7.70
2015,04,10,17,33,7.80
2015,04,10,17,34,7.80
2015,04,10,17,35,7.80
2015,04,10,17,36,7.80
2015,04,10,17,37,7.80
2015,04,10,17,38,7.80
2015,04,10,17,39,7.80
2015,04,10,17,40,7.80
2015,04,10,17,41,7.80
2015,04,10,17,42,7.80
2015,04,10,17,43,7.80
2015,04,10,17,44,7.80
2015,04,10,17,45,7.80
2015,04,10,17,46,7.80
2015,04,10,17,47,7.80
2015,04,10,17,48,7.80
2015,04,10,17,49,7.80
2015,04,10,17,50,7.80
2015,04,10,17,51,7.80
2015,04,10,17,52,7.80